COSMOS 1275 DEB, 42225

Orbit data source: Space-Track

COSMOS 1275 DEB, 42225 is space debris in LEO originally from a launch on Thu, 04 Jun 1981 UTC launched from the Plesetsk Missile And Space Complex (PKMTR). Debris objects in space refer to the collection of defunct objects orbiting the Earth. Examples of debris include non-operational satellites, rocket bodies, and fragments generated from explosions, collisions, or faulty payload assembly.

Loading next visibility...
Identifier
42225, 1981-053UR
Orbit
LEO
Country
Flag of CISCIS
Related business
Manufacturer
Unknown
Mission
Spacecraft
Bus & Motor
Unknown
Mass
Unknown
Launch date (UTC)
1981-06-04 (45 years ago)
Launch vehicle
Unknown
Launch site
Plesetsk Missile And Space Complex (PKMTR)
Object type
Payload
Rocket body
Debris
Shape & HBR
Unknown shape, 0.1 m
Radar Cross Section
Small (<0.1 m²)

Expand to show TLE details & history
Last TLE update: 2 days ago

TLE from 2 days ago
0 COSMOS 1275 DEB
1 42225U 81053UR  25349.22415468  .00002477  00000-0  12166-2 0  9995
2 42225  83.1462 329.9588 0035367 353.9132   6.1613 14.17045760620038
Epoch: 2025-12-15T05:22Z
TLE epoch observation values (Epoch: 2025-12-15T05:22:46.964Z)
Latitude
-0.00002°
Longitude
165.13732°
Altitude
812.956 km
Speed
7.46 km/s
True Right ascension
21h 59m 50s
True Declination
0° 00' 00"
Sunlit
Object was in daylight at epoch
Visualization orbit readout
Latitude
Unknown
Longitude
Unknown
Altitude
Unknown
Speed
Unknown
Apparent Right ascension
Unknown
Apparent Declination
Unknown
Sunlit
N/A
Visualization observer readout
Local Sidereal Time
09:09:17
Azimuth
Unknown
Elevation
Unknown
Doppler factor
Unknown
Orbital elements
Apogee altitude
857.946 km
Perigee altitude
806.942 km
Semi-major axis
7,210.581 km
Eccentricity
0.00354
Inclination
83.1462°
RAAN
329.9588°
Arg. of periapsis
353.9132°
True anomaly
6.20499°
Mean anomaly
6.1613°
Eccentric anomaly
6.18313°
Mean motion
3.54477 °/min
Orbital period
101.56 mins
BSTAR
0.0012166
Loading maneuver chart data...
Computing Atmospheric mass density...

Documentation

Showing up to 5 results
|